User: anonymous   Login
Location: Unspecified
(0.0000°N, 0.0000°E)
Time: 19:55:32
(UTC+00:00)
Language:

Megsat 1 - Orbit

View from above orbital plane
View from above orbital plane
View from above satellite
View from above satellite

Ground track
Ground track

The orbit data is extracted from the following two-line orbital elements,

1 26545U 00057A   18350.95059215 -.00000061 +00000-0 +10585-4 0  9998
2 26545 064.5530 187.8095 0027995 334.8025 025.1714 14.84935211985686
Epoch (UTC): 16 December 2018 22:48:51
Eccentricity: 0.0027995
inclination: 64.5530°
perigee height: 594 km
apogee height: 633 km
right ascension of ascending node: 187.8095°
argument of perigee: 334.8025°
revolutions per day: 14.84935211
mean anomaly at epoch: 25.1714°
orbit number at epoch: 98568

The dashed part of the orbit path shows where the satellite is in the earth's shadow,  

DLR